Location: Larkspur
(54.4391°N, 113.7691°W)
Time: 21:19:31
(UTC+00:00)

METEOR M2 - Pass Details

Date: 07 December 2023
Orbit: 819 x 826 km, 98.4° (Epoch: 04 March)

Event Time Altitude Azimuth Distance (km) Brightness Sun altitude
Rises 12:42:03 0° 20° (NNE) 3,374 ? -24.6°
Reaches altitude 10° 12:44:41 10° 31° (NNE) 2,435 ? -24.2°
Maximum altitude 12:49:27 31° 93° (E) 1,411 ? -23.5°
Drops below altitude 10° 12:54:10 10° 155° (SSE) 2,415 ? -22.8°
Sets 12:56:46 0° 166° (SSE) 3,342 ? -22.5°
